Waarnemingen

Advertentie
Mijn weer
Harsfjarden, Zweden (2489): temperatuur & dauwpunt: 14.07.2018 22:00:00 - 20.07.2018 22:00:00 (CEST)Harsfjarden, Zweden (2489): windsnelheid & windstoten: 14.07.2018 22:00:00 - 20.07.2018 22:00:00 (CEST)Harsfjarden, Zweden (2489): windrichting: 14.07.2018 22:00:00 - 20.07.2018 22:00:00 (CEST)Harsfjarden, Zweden (2489): luchtdruk: 14.07.2018 22:00:00 - 20.07.2018 22:00:00 (CEST)Harsfjarden, Zweden (2489): zicht: 14.07.2018 22:00:00 - 20.07.2018 22:00:00 (CEST)Harsfjarden, Zweden (2489): neerslag: 14.07.2018 22:00:00 - 20.07.2018 22:00:00 (CEST)
Datum & Tijd tt [°C] td [°C] ff [km/u] ff [kn] fx [km/u] fx [kn] dd ppp [hPa] vv [km] rr [mm]
20.07.2018 22:00:00 22,1 19,2 0 0 14 8 N 1007,8 45 0,0
20.07.2018 21:00:00 23,8 18,4 11 6 14 8 Z 1008,0 45 0,0
20.07.2018 20:00:00 24,5 18,9 7 4 14 8 Z 1008,3 45 0,0
20.07.2018 19:00:00 25,1 19,7 7 4 14 8 Z 1008,5 45 0,0
20.07.2018 18:00:00 26,5 17,3 11 6 18 10 Z 1008,7 40 0,0
20.07.2018 17:00:00 26,9 14,3 14 8 22 12 Z 1008,8 40 0,0
20.07.2018 16:00:00 27,8 15,5 14 8 22 12 Z 1008,7 40 0,0
20.07.2018 15:00:00 26,9 15,3 11 6 18 10 Z 1009,0 45 0,0
20.07.2018 14:00:00 29,7 14,7 11 6 22 12 Z 1009,0 40 0,0
20.07.2018 13:00:00 29,7 15,0 11 6 18 10 Z 1009,6 40 0,0
20.07.2018 12:00:00 26,3 15,0 7 4 18 10 OZO 1010,0 40 0,0
20.07.2018 11:00:00 29,0 14,0 7 4 14 8 Z 1010,2 40 0,0
20.07.2018 10:00:00 27,1 18,1 11 6 11 6 ZZO 1010,4 40 0,0
20.07.2018 09:00:00 25,8 17,2 7 4 11 6 ZO 1010,7 40 0,0
20.07.2018 08:00:00 25,2 13,7 4 2 11 6 NNO 1011,0 40 0,0
20.07.2018 07:00:00 22,8 15,9 0 0 4 2 N 1011,1 45 0,0
20.07.2018 06:00:00 16,5 13,8 4 2 4 2 N 1011,3 45 0,0
20.07.2018 05:00:00 15,0 13,0 0 0 4 2 N 1011,4 45 0,0
20.07.2018 04:00:00 15,1 13,1 4 2 4 2 N 1011,6 45 0,0
20.07.2018 03:00:00 15,7 13,5 0 0 4 2 N 1011,8 45 0,0
20.07.2018 02:00:00 16,4 14,2 4 2 4 2 N 1012,2 45 0,0
20.07.2018 01:00:00 16,8 14,1 4 2 4 2 NW 1012,5 45 0,0
20.07.2018 00:00:00 18,2 15,5 4 2 4 2 N 1012,7 45 0,0
19.07.2018 23:00:00 18,3 14,6 4 2 4 2 N 1012,9 45 0,0
19.07.2018 22:00:00 19,7 15,1 0 0 4 2 N 1012,9 45 0,0
19.07.2018 21:00:00 21,3 15,8 4 2 4 2 NW 1012,9 45 0,0
19.07.2018 20:00:00 23,5 16,3 0 0 7 4 N 1012,6 35 0,0
19.07.2018 19:00:00 24,5 16,5 4 2 7 4 OZO 1012,4 45 0,0
19.07.2018 18:00:00 25,0 16,2 4 2 14 8 Z 1012,6 45 0,0
19.07.2018 17:00:00 24,9 17,9 11 6 18 10 ZZO 1013,1 45 0,0
19.07.2018 16:00:00 26,4 17,5 14 8 18 10 ZO 1013,1 40 0,0
19.07.2018 15:00:00 25,7 17,4 14 8 22 12 ZO 1013,2 40 0,0
19.07.2018 14:00:00 27,1 17,0 11 6 18 10 OZO 1013,1 40 0,0
19.07.2018 13:00:00 26,7 16,6 11 6 18 10 O 1013,3 40 0,0
19.07.2018 12:00:00 27,0 17,2 7 4 22 12 ONO 1013,4 35 0,0
19.07.2018 11:00:00 26,4 18,0 11 6 18 10 OZO 1013,1 35 0,0
19.07.2018 10:00:00 26,3 18,7 11 6 18 10 OZO 1013,0 30 0,0
19.07.2018 09:00:00 25,9 18,3 7 4 14 8 O 1013,0 40 0,0
19.07.2018 08:00:00 24,4 18,1 7 4 18 10 ONO 1013,2 40 0,0
19.07.2018 07:00:00 22,4 18,0 11 6 14 8 NNO 1013,0 40 0,0
19.07.2018 06:00:00 19,8 16,6 11 6 14 8 N 1012,8 40 0,0
19.07.2018 05:00:00 17,8 15,6 11 6 14 8 N 1012,8 35 0,0
19.07.2018 04:00:00 17,0 15,0 7 4 11 6 N 1012,9 45 0,0
19.07.2018 03:00:00 17,8 15,2 7 4 7 4 NNO 1012,9 45 0,0
19.07.2018 02:00:00 17,3 15,1 0 0 11 6 N 1013,2 40 0,0
19.07.2018 01:00:00 17,9 15,2 4 2 11 6 N 1013,3 45 0,0
19.07.2018 00:00:00 17,8 15,2 0 0 7 4 N 1013,4 45 0,0
18.07.2018 23:00:00 18,8 15,7 4 2 7 4 NO 1013,5 45 0,0
18.07.2018 22:00:00 20,1 15,9 4 2 7 4 NNO 1013,5 45 0,0
18.07.2018 21:00:00 23,1 16,9 4 2 14 8 ONO 1013,3 45 0,0
18.07.2018 20:00:00 24,5 18,2 7 4 14 8 O 1013,2 45 0,0
18.07.2018 19:00:00 25,9 15,9 7 4 18 10 O 1012,9 45 0,0
18.07.2018 18:00:00 26,9 15,3 11 6 18 10 ONO 1013,0 40 0,0
18.07.2018 17:00:00 27,9 15,2 11 6 22 12 ONO 1013,2 40 0,0
18.07.2018 16:00:00 26,9 17,7 11 6 18 10 O 1013,3 35 0,0
18.07.2018 15:00:00 27,2 17,9 7 4 22 12 O 1013,5 35 0,0
18.07.2018 14:00:00 27,3 17,5 11 6 18 10 ZO 1013,2 35 0,0
18.07.2018 13:00:00 26,8 17,6 11 6 18 10 ZO 1013,4 35 0,0
18.07.2018 12:00:00 25,6 18,8 11 6 18 10 ZO 1013,5 30 0,0
18.07.2018 11:00:00 26,8 17,6 7 4 22 12 O 1013,7 30 0,0
18.07.2018 10:00:00 25,6 19,0 7 4 18 10 ONO 1013,7 35 0,0
18.07.2018 09:00:00 25,2 18,4 11 6 22 12 ONO 1013,6 40 0,0
18.07.2018 08:00:00 24,5 18,2 11 6 22 12 ONO 1013,5 40 0,0
18.07.2018 07:00:00 24,2 18,2 7 4 14 8 ONO 1013,4 40 0,0
18.07.2018 06:00:00 23,9 16,7 7 4 14 8 ONO 1013,2 40 0,0
18.07.2018 05:00:00 21,9 15,7 7 4 11 6 NO 1013,1 45 0,0
18.07.2018 04:00:00 20,6 15,6 4 2 11 6 NNO 1013,2 45 0,0
18.07.2018 03:00:00 20,0 15,0 4 2 7 4 NNO 1013,3 45 0,0
18.07.2018 02:00:00 20,5 14,8 4 2 11 6 N 1013,5 45 0,0
18.07.2018 01:00:00 19,7 14,7 4 2 7 4 N 1013,7 45 0,0
18.07.2018 00:00:00 21,6 15,2 7 4 14 8 NNO 1014,0 45 0,0
17.07.2018 23:00:00 21,2 13,9 7 4 11 6 N 1013,9 45 0,0
17.07.2018 22:00:00 22,6 13,6 4 2 11 6 NNO 1014,2 45 0,0
17.07.2018 21:00:00 25,1 13,3 7 4 14 8 NNO 1013,9 45 0,0
17.07.2018 20:00:00 27,0 13,0 7 4 18 10 NO 1013,6 45 0,0
17.07.2018 19:00:00 27,3 15,0 7 4 18 10 ONO 1013,8 45 0,0
17.07.2018 18:00:00 27,8 14,8 11 6 25 14 ONO 1014,0 40 0,0
17.07.2018 17:00:00 28,7 13,4 11 6 25 14 ONO 1014,0 45 0,0
17.07.2018 16:00:00 29,5 14,9 11 6 22 12 ONO 1014,2 40 0,0
17.07.2018 15:00:00 29,0 15,9 7 4 18 10 O 1014,8 40 0,0
17.07.2018 14:00:00 28,1 17,0 7 4 22 12 OZO 1014,9 40 0,0
17.07.2018 13:00:00 27,4 17,3 11 6 18 10 ZO 1015,0 35 0,0
17.07.2018 12:00:00 27,1 16,4 11 6 25 14 ZO 1015,4 35 0,0
17.07.2018 11:00:00 27,1 17,0 7 4 22 12 ZO 1015,3 30 0,0
17.07.2018 10:00:00 27,6 15,3 11 6 18 10 OZO 1015,1 40 0,0
17.07.2018 09:00:00 26,5 16,1 7 4 18 10 ONO 1015,2 40 0,0
17.07.2018 08:00:00 25,1 16,8 7 4 14 8 ONO 1015,0 40 0,0
17.07.2018 07:00:00 23,0 16,3 4 2 11 6 NO 1015,0 45 0,0
17.07.2018 06:00:00 20,4 15,2 4 2 7 4 NNO 1015,3 45 0,0
17.07.2018 05:00:00 17,4 14,1 7 4 11 6 NNO 1015,1 45 0,0
17.07.2018 04:00:00 18,5 14,8 7 4 11 6 N 1015,0 45 0,0
17.07.2018 03:00:00 18,6 14,5 7 4 14 8 N 1015,0 50 0,0
17.07.2018 02:00:00 18,0 13,5 7 4 11 6 N 1015,4 45 0,0
17.07.2018 01:00:00 19,0 13,6 7 4 11 6 NNO 1015,6 45 0,0
17.07.2018 00:00:00 18,8 13,9 7 4 7 4 NNO 1015,7 45 0,0
16.07.2018 23:00:00 19,2 14,1 4 2 4 2 N 1015,6 45 0,0
16.07.2018 22:00:00 21,2 14,8 4 2 4 2 N 1015,6 45 0,0
16.07.2018 21:00:00 24,3 15,5 4 2 7 4 ONO 1015,3 45 0,0
16.07.2018 20:00:00 25,8 17,2 4 2 11 6 NO 1014,9 45 0,0
16.07.2018 19:00:00 26,5 16,7 4 2 18 10 OZO 1014,9 45 0,0
16.07.2018 18:00:00 26,3 16,5 11 6 18 10 ZO 1014,9 45 0,0
16.07.2018 17:00:00 27,2 15,2 11 6 18 10 ZO 1015,2 45 0,0
16.07.2018 16:00:00 27,0 16,0 14 8 18 10 ZO 1015,3 45 0,0
16.07.2018 15:00:00 27,5 15,8 14 8 18 10 ZO 1015,6 45 0,0
16.07.2018 14:00:00 27,9 13,1 11 6 18 10 OZO 1015,8 35 0,0
16.07.2018 13:00:00 28,5 15,4 11 6 18 10 ZO 1016,0 40 0,0
16.07.2018 12:00:00 27,9 13,8 7 4 11 6 OZO 1016,0 45 0,0
16.07.2018 11:00:00 27,6 13,2 7 4 14 8 OZO 1015,9 40 0,0
16.07.2018 10:00:00 25,9 17,3 7 4 11 6 OZO 1015,8 45 0,0
16.07.2018 09:00:00 25,0 17,5 7 4 7 4 ZO 1015,7 40 0,0
16.07.2018 08:00:00 23,6 16,6 4 2 7 4 ZO 1015,9 40 0,0
16.07.2018 07:00:00 22,0 17,8 0 0 7 4 N 1015,8 45 0,0
16.07.2018 06:00:00 17,1 14,2 4 2 4 2 N 1015,6 45 0,0
16.07.2018 05:00:00 15,2 13,0 4 2 4 2 N 1015,6 45 0,0
16.07.2018 04:00:00 15,3 13,1 4 2 4 2 N 1015,5 45 0,0
16.07.2018 03:00:00 15,9 13,9 4 2 4 2 N 1015,4 45 0,0
16.07.2018 02:00:00 16,4 14,6 0 0 4 2 N 1015,5 45 0,0
16.07.2018 01:00:00 17,1 14,9 0 0 4 2 N 1015,5 45 0,0
16.07.2018 00:00:00 18,1 16,1 4 2 4 2 NNW 1015,4 45 0,0
15.07.2018 23:00:00 19,3 16,1 0 0 4 2 N 1015,1 45 0,0
15.07.2018 22:00:00 20,7 16,1 4 2 7 4 NNO 1015,0 45 0,0
15.07.2018 21:00:00 23,6 17,1 4 2 14 8 Z 1014,6 45 0,0
15.07.2018 20:00:00 25,3 15,6 7 4 18 10 Z 1014,4 50 0,0
15.07.2018 19:00:00 25,8 14,3 14 8 18 10 Z 1014,1 45 0,0
15.07.2018 18:00:00 26,2 15,6 11 6 22 12 Z 1014,4 45 0,0
15.07.2018 17:00:00 26,6 16,2 14 8 22 12 Z 1014,3 45 0,0
15.07.2018 16:00:00 27,2 16,5 14 8 22 12 Z 1014,4 40 0,0
15.07.2018 15:00:00 28,4 16,7 11 6 18 10 Z 1014,4 45 0,0
15.07.2018 14:00:00 28,0 18,4 14 8 18 10 Z 1014,3 40 0,0
15.07.2018 13:00:00 29,3 16,8 11 6 18 10 Z 1014,4 40 0,0
15.07.2018 12:00:00 28,1 18,8 14 8 18 10 Z 1014,3 40 0,0
15.07.2018 11:00:00 26,2 18,1 11 6 14 8 OZO 1014,4 40 0,0
15.07.2018 10:00:00 25,0 17,5 7 4 11 6 ZO 1014,2 40 0,0
15.07.2018 09:00:00 23,0 17,9 7 4 11 6 ZZO 1014,0 40 0,0
15.07.2018 08:00:00 25,0 16,2 7 4 11 6 WNW 1013,7 45 0,0
15.07.2018 07:00:00 21,8 15,9 4 2 7 4 NW 1013,7 45 0,0
15.07.2018 06:00:00 19,1 17,2 4 2 4 2 WZW 1013,6 45 0,0
15.07.2018 05:00:00 15,1 14,3 0 0 7 4 N 1013,6 40 0,0
15.07.2018 04:00:00 14,3 13,3 0 0 4 2 N 1013,5 45 0,0
15.07.2018 03:00:00 14,8 13,7 4 2 4 2 N 1013,4 45 0,0
15.07.2018 02:00:00 15,4 14,1 4 2 4 2 N 1013,5 45 0,0
15.07.2018 01:00:00 16,1 14,5 4 2 4 2 N 1013,5 45 0,0
15.07.2018 00:00:00 17,1 14,9 0 0 4 2 N 1013,5 35 0,0
14.07.2018 23:00:00 17,7 14,4 0 0 4 2 N 1013,4 50 0,0
14.07.2018 22:00:00 19,2 15,1 0 0 7 4 N 1013,3 50 0,0

tt = temperatuur
td = dauwpunt
ff = windsnelheid
fx = windstoten
dd = windrichting
ppp = luchtdruk
vv = zicht
rr = neerslag

Weerstations in de omgeving